Location: RyutenAO
(34.8939°N, 134.0022°E)
Time: 00:10:15
(UTC+09:00)

PRISM - Visible Passes

Search period start: 16 April 2024 00:00
Search period end: 26 April 2024 00:00
Orbit: 508 x 528 km, 98.2° (Epoch: 15 April)

Date Brightness Start Highest point End Pass type
(mag) Time Alt. Az. Time Alt. Az. Time Alt. Az.
16 Apr ? 19:02:50 10° ESE 19:05:16 17° ENE 19:07:42 10° NNE visible
16 Apr ? 20:36:58 16° SW 20:39:05 26° W 20:42:14 10° NW visible
17 Apr ? 20:22:43 19° SSW 20:24:58 40° W 20:28:30 10° NNW visible
18 Apr ? 20:08:25 20° S 20:10:50 65° WSW 20:14:33 10° NNW visible
19 Apr ? 19:54:04 19° SSE 19:56:41 77° ENE 20:00:25 10° N visible
20 Apr ? 19:39:40 15° SE 19:42:31 47° ENE 19:46:07 10° N visible
21 Apr ? 19:25:13 11° SE 19:28:19 30° ENE 19:31:36 10° N visible
21 Apr ? 21:00:25 10° SW 21:02:21 14° W 21:04:19 10° WNW visible
22 Apr ? 19:11:21 10° ESE 19:14:06 20° ENE 19:16:52 10° NNE visible
22 Apr ? 20:45:45 13° SW 20:47:58 21° W 20:50:51 10° NW visible
23 Apr ? 20:31:12 17° SSW 20:33:33 32° W 20:36:56 10° NNW visible
24 Apr ? 20:16:36 18° S 20:19:06 53° W 20:22:46 10° NNW visible
25 Apr ? 20:01:57 18° SSE 20:04:40 87° W 20:08:24 10° NNW visible
